Starlink 31931

operational
NORAD ID: 59864 Int'l Des: 2024-098 Owner: SPXS Country: US Constellation: starlink
LEOCIRCULAR

About Starlink 31931

Description loading...

Live Position

Loading 3D Globe...

Upcoming Passes

Altitude History

Altitude vs Time

uPlot chart will show altitude changes over time

Two-Line Element Set

1 59864U 24098G 25257.22006814 .00000829 00000-0 39650-4 0 9995
2 59864 43.0029 194.9243 0001140 272.9678 87.1043 15.27576852 74856
Epoch: Sep 14, 2025 • Age: 28 hours

Current Status

Altitude 484.5 km
Velocity 7.63 km/s
Sub-Earth Point 32.19°N, 89.52°E
Launch Date May 24, 2024
Age 1.3 years
Type internet

Technical Details

Classification Payload
Mass 730.00 kg
Dry Mass 700.00 kg
Total Mass 730.00 kg
Length 0.30 m
Diameter 4.10 m
Span 29.00 m
Shape Box + pan
Manufacturer SPXS
Bus Type Starlink V2M
Phase Status In Orbit
Owner/State SPXS/US

Large Constellations

Loading constellations...